Regional Weather Roundup
Issued by NWS

Home | Current Version | Previous Version | Text Only | Print | Product List | Glossary On
Versions: 1 2 3 4 5 6 7 8 9 10 11 12 13 14 15 16 17 18 19 20 21 22 23 24 25 26 27 28 29 30 31 32 33 34 35 36 37 38 39 40 41 42 43 44 45 46 47 48 49 50
000
ASUS43 KLSX 300359
RWRMO

WEATHER SUMMARY FOR MISSOURI
NATIONAL WEATHER SERVICE SPRINGFIELD MO
1000 PM CST THU JAN 29 2015

NOTE: "FAIR" INDICATES FEW OR NO CLOUDS BELOW 12,000 FEET WITH NO
       SIGNIFICANT WEATHER AND/OR OBSTRUCTIONS TO VISIBILITY.
       CURRENT SKY AND/OR WEATHER CONDITIONS ARE NOT AVAILABLE FOR
       CHILLICOTHE AND FARMINGTON.

MOZ001>031-035>038-043-044-053-054-300500-
...NORTHERN AND WESTERN MISSOURI...

CITY           SKY/WX    TMP DP  RH WIND       PRES   REMARKS
KANSAS CTY INT CLEAR     28  22  78 N7        30.51R WCI  21
KANSAS C DTWN  CLEAR     32  23  69 CALM      30.52S
LEE`S SUMMIT   CLEAR     31  23  72 N7        30.51S WCI  24
ST JOSEPH      CLEAR     26  21  81 W6        30.54R WCI  19
CHILLICOTHE      N/A     33  24  69 NW5       30.51R WCI  29
KIRKSVILLE     CLEAR     29  22  75 N12       30.45S WCI  19

$$
MOZ066>068-077>081-088>096-101>105-300500-
...SOUTHWEST MISSOURI...

CITY           SKY/WX    TMP DP  RH WIND       PRES   REMARKS
SPRINGFIELD    CLEAR     28  23  81 NW8       30.46R WCI  20
JOPLIN         CLEAR     33  26  75 N5        30.51R WCI  29

$$
MOZ032>034-039>042-045>050-055>058-069>072-300500-
...CENTRAL MISSOURI...

CITY           SKY/WX    TMP DP  RH WIND       PRES   REMARKS
COLUMBIA       CLOUDY    36  25  64 NW16      30.46R WCI  26
JEFFERSON CITY CLOUDY    38  26  62 NW12      30.47R
ROLLA          CLOUDY    35  25  66 NW9       30.41S WCI  28
SEDALIA        CLOUDY    36  25  64 NW15      30.51R WCI  27
OSAGE BEACH    CLOUDY    37  23  56 NW8       30.46S

$$
MOZ051-052-059>065-300500-
...EAST CENTRAL MISSOURI...

CITY           SKY/WX    TMP DP  RH WIND       PRES   REMARKS
ST LOUIS INTL  CLOUDY    37  25  61 N12       30.42R WCI  29
SPIRIT OF STL  CLOUDY    37  25  61 NW12      30.42R WCI  29
ST CHARLES     CLOUDY    36  26  67 NW13      30.42S WCI  27

$$
MOZ072>076-082>087-097>100-106>115-300500-
...SOUTH CENTRAL AND SOUTHEAST MISSOURI...

CITY           SKY/WX    TMP DP  RH WIND       PRES   REMARKS
CAPE GIRARDEAU CLOUDY    40  31  70 N13       30.39R
FARMINGTON     CLOUDY    37  25  60 N9        30.42S
POPLAR BLUFF   CLOUDY    42  28  57 N12       30.39R
WEST PLAINS    CLEAR     36  26  67 N10       30.41S WCI  28

$$


USA.gov is the U.S. government's official web portal to all federal, state and local government web resources and services.